User: anonymous   Login
Location: Lamoine Observatory
(44.4551°N, 68.3470°W)
Time: 15:19:50
(UTC-05:00)
Language:

Cosmos 1674 Rocket - Orbit

View from above orbital plane
View from above orbital plane
View from above satellite
View from above satellite

Ground track
Ground track

The orbit data is extracted from the following two-line orbital elements,

1 15945U 85069B   18022.43406391  .00000079  00000-0  65812-5 0  9998
2 15945  82.5289 287.6850 0018232 279.5808  80.3347 14.83958592753544
Epoch (UTC): 22 January 2018 10:25:03
Eccentricity: 0.0018232
inclination: 82.5289°
perigee height: 604 km
apogee height: 629 km
right ascension of ascending node: 287.6850°
argument of perigee: 279.5808°
revolutions per day: 14.83958592
mean anomaly at epoch: 80.3347°
orbit number at epoch: 75354

The dashed part of the orbit path shows where the satellite is in the earth's shadow,  

DLR